{"data":{"norad_id":55506,"intl_designator":"2023-016A","name":"ELEKTRO-L 4","alt_names":[],"object_type":"PAYLOAD","status":"ACTIVE","operator":null,"country":"CIS","launch_date":"2023-02-05","launch_site_code":"TYMSC","launch_vehicle":null,"mission":null,"orbit_class":"UNKNOWN","rcs_meters":null,"size_class":null,"mass_kg":null,"dimensions":null,"purposes":["comms"],"wikipedia_slug":null,"has_3d_model":false,"image_url":null,"decayed_at":null,"tle_current":{"epoch":"2026-05-24T20:46:59.399328Z","epoch_age_seconds":82832,"freshness":"FRESH","line1":"1 55506U 23016A   26144.86596527 -.00000061  00000+0  00000+0 0  9994","line2":"2 55506   0.0854 208.6794 0000480 331.5353 179.7817  1.00271893 12094","mean_motion":1.00271893,"eccentricity":4.8e-5,"inclination_deg":0.0854,"raan_deg":208.6794,"arg_perigee_deg":331.5353,"mean_anomaly_deg":179.7817,"bstar":0,"rev_number":1209,"period_min":1436.0953572503,"perigee_km":35784.540779216,"apogee_km":35788.588590578,"semimajor_km":42164.701684897,"source":"CELESTRAK","updated_at":"2026-05-25T13:38:14.138364Z"}}}